Location: Unspecified
(0.0000°N, 0.0000°E)
Time: 04:35:19
(UTC+00:00)

Transit 2A - Pass Details

Date: 24 September 2023
Orbit: 600 x 953 km, 66.7° (Epoch: 06 December)

Event Time Altitude Azimuth Distance (km) Brightness Sun altitude
Rises 18:16:21 0° 10° (N) 2,839 8.9 -6.1°
Reaches altitude 10° 18:19:21 10° 32° (NNE) 1,931 7.8 -6.8°
Maximum altitude 18:22:00 16° 70° (ENE) 1,584 7.1 -7.5°
Drops below altitude 10° 18:24:41 10° 109° (ESE) 1,956 7.5 -8.2°
Enters shadow 18:25:27 - 116° (ESE) 2,164 7.8 -8.4°
